Date_and_time,latitude,longitude,wind_speed,RelWindDirFrom,WindDirFrom,air_pressure,air_temperature,relative_humidity,Temp,platform_speed_wrt_ground,air_pressure_at_mean_sea_level,platform_orientation
2019-04-10 23:40,50.6304233333333,-96.9807266666667,11.9,13.2,8,997.81,1.3,74,2.43,0.0,1025.80,90.0
2019-04-10 23:50,50.6304366666667,-96.9807666666667,11.6,12.8,10,997.93,1.1,76,2.43,0.0,1025.93,90.0
2019-04-11 00:00,50.6304383333333,-96.9807666666667,10.8,12.3,13,998.00,0.7,78,2.44,0.0,1026.02,90.0
2019-04-11 00:00,50.6304383333333,-96.9807666666667,10.1,10.2,9,998.07,0.5,81,2.44,0.0,1026.11,90.0
2019-04-11 00:10,50.6304366666667,-96.9807683333333,10.6,11.8,10,998.14,0.4,81,2.45,0.0,1026.18,90.0
2019-04-11 00:20,50.6304366666667,-96.9807666666667,10.4,11.7,15,998.24,0.4,80,2.46,0.0,1026.28,90.0
2019-04-11 00:30,50.6304366666667,-96.98077,10.1,11.9,20,998.37,0.3,78,2.47,0.0,1026.42,90.0
2019-04-11 00:40,50.6304333333333,-96.9807716666667,9.3,10.4,21,998.47,-0.0,80,2.47,0.0,1026.55,90.0
2019-04-11 00:50,50.6304333333333,-96.980765,8.3,9.1,21,998.58,-0.4,82,2.47,0.0,1026.68,90.0
2019-04-11 01:00,50.6304266666667,-96.9807683333333,8.7,9.9,26,998.59,-0.7,82,2.47,0.0,1026.72,161.1
2019-04-11 01:10,50.6304266666667,-96.9807633333333,8.7,9.7,34,998.65,-0.7,79,2.48,0.0,1026.79,161.1
2019-04-11 01:20,50.63043,-96.9807666666667,8.0,8.8,31,998.73,-1.1,81,2.48,0.0,1026.89,161.1
2019-04-11 01:30,50.6304316666667,-96.9807766666667,8.0,10.7,19,998.82,-1.6,88,2.49,0.0,1027.02,161.1
2019-04-11 01:40,50.6304316666667,-96.9807816666667,10.3,11.9,41,998.85,-1.3,80,2.49,0.0,1027.06,161.1
2019-04-11 01:50,50.630435,-96.9807833333333,11.7,13.6,49,998.89,-0.9,73,2.49,0.0,1027.09,161.1
2019-04-11 02:00,50.6304333333333,-96.9807816666667,11.9,13.6,51,998.96,-0.8,73,2.50,0.0,1027.15,229.4
2019-04-11 02:10,50.630435,-96.9807816666667,12.0,14.0,54,999.05,-1.0,74,2.50,0.0,1027.26,229.4
2019-04-11 02:20,50.6304383333333,-96.98078,12.3,13.9,57,999.14,-0.8,72,2.50,0.0,1027.34,229.4
2019-04-11 02:30,50.6304366666667,-96.9807816666667,11.0,13.6,58,999.19,-0.9,73,2.51,0.0,1027.42,229.4
2019-04-11 02:40,50.63043,-96.98077,9.9,11.8,57,999.25,-1.5,78,2.50,0.0,1027.53,229.4
2019-04-11 02:50,50.6304283333333,-96.9807666666667,11.1,12.8,62,999.29,-1.4,74,2.50,0.0,1027.58,229.4
2019-04-11 03:00,50.6304416666667,-96.9807716666667,11.0,12.2,59,999.36,-1.5,76,2.49,0.0,1027.66,270.0
2019-04-11 03:10,50.6304416666667,-96.9807716666667,10.9,12.8,59,999.45,-1.7,76,2.48,0.0,1027.79,270.0
2019-04-11 03:20,50.630405,-96.9807416666667,10.3,12.3,55,999.46,-1.5,72,2.48,0.0,1027.81,270.0
2019-04-11 03:30,50.63042,-96.9807683333333,10.1,11.5,51,999.48,-1.8,73,2.48,0.0,1027.84,270.0
2019-04-11 03:40,50.6304266666667,-96.9807616666667,10.7,12.6,47,999.46,-2.0,75,2.48,0.0,1027.80,270.0
2019-04-11 03:50,50.63043,-96.980765,11.7,13.7,50,999.38,-2.0,74,2.48,0.0,1027.72,270.0
2019-04-11 04:00,50.6304316666667,-96.9807683333333,11.7,14.0,50,999.35,-2.1,75,2.48,0.0,1027.70,360.0
2019-04-11 04:10,50.6304316666667,-96.9807683333333,10.4,11.6,46,999.37,-2.7,80,2.48,0.0,1027.74,360.0
2019-04-11 04:20,50.6304216666667,-96.9807733333333,9.3,10.9,44,999.37,-3.0,82,2.48,0.0,1027.76,360.0
2019-04-11 04:30,50.63042,-96.9808016666667,9.1,11.0,50,999.45,-3.0,80,2.49,0.0,1027.88,360.0
2019-04-11 04:40,50.6304283333333,-96.980785,9.2,10.6,52,999.50,-2.9,78,2.50,0.0,1027.92,360.0
2019-04-11 04:50,50.6304333333333,-96.9807783333333,9.0,10.2,53,999.57,-3.1,79,2.49,0.0,1028.01,360.0
2019-04-11 05:00,50.630435,-96.980775,9.0,10.8,56,999.61,-3.1,79,2.48,0.0,1028.06,60.8
2019-04-11 05:10,50.630435,-96.9807766666667,8.6,9.5,55,999.67,-3.3,80,2.47,0.0,1028.12,60.8
2019-04-11 05:20,50.630435,-96.9807783333333,8.1,9.2,53,999.78,-3.5,81,2.46,0.0,1028.26,60.8
2019-04-11 05:30,50.630435,-96.9807783333333,7.5,8.4,48,999.83,-3.7,84,2.46,0.0,1028.33,60.8
2019-04-11 05:40,50.630435,-96.9807783333333,6.4,7.2,44,999.86,-3.9,85,2.46,0.0,1028.38,60.8
2019-04-11 05:50,50.630435,-96.9807783333333,6.3,7.2,42,999.90,-4.1,87,2.46,0.0,1028.44,60.8
2019-04-11 06:00,50.630425,-96.980785,6.8,7.9,54,999.91,-4.1,87,2.47,0.0,1028.47,223.4
2019-04-11 06:10,50.63043,-96.9807783333333,7.1,8.3,62,999.92,-4.0,87,2.47,0.0,1028.49,223.4
2019-04-11 06:20,50.6304383333333,-96.980775,7.0,7.8,65,999.92,-3.9,86,2.47,0.0,1028.49,223.4
2019-04-11 06:30,50.6304366666667,-96.9807716666667,7.0,7.8,60,999.91,-3.7,83,2.47,0.0,1028.46,223.4
2019-04-11 06:40,50.6304366666667,-96.9807716666667,7.1,7.8,55,999.85,-3.8,85,2.47,0.0,1028.42,223.4
2019-04-11 06:50,50.630435,-96.9807733333333,7.0,7.9,49,999.83,-4.2,87,2.47,0.0,1028.42,223.4
2019-04-11 07:00,50.6304316666667,-96.9807716666667,7.4,8.8,50,999.79,-4.3,85,2.47,0.0,1028.39,270.0
2019-04-11 07:10,50.6304183333333,-96.9807683333333,8.0,8.9,50,999.74,-4.4,85,2.47,0.0,1028.36,270.0
2019-04-11 07:20,50.630425,-96.9807633333333,8.4,9.4,47,999.61,-4.6,86,2.47,0.0,1028.25,270.0
2019-04-11 07:30,50.6304366666667,-96.980775,9.5,10.5,46,999.39,-4.6,85,2.46,0.0,1028.04,270.0
2019-04-11 07:40,50.6304333333333,-96.9807766666667,9.7,10.9,44,999.26,-4.6,84,2.46,0.0,1027.91,270.0
2019-04-11 07:50,50.6304283333333,-96.9807716666667,9.7,10.9,41,999.10,-4.8,85,2.46,0.0,1027.75,270.0
2019-04-11 08:00,50.6304283333333,-96.9807716666667,9.7,11.5,40,998.96,-5.1,86,2.46,0.0,1027.62,360.0
2019-04-11 08:10,50.6304283333333,-96.98077,10.1,11.3,43,998.84,-5.0,85,2.44,0.0,1027.49,360.0
2019-04-11 08:20,50.6304316666667,-96.9807716666667,9.2,10.2,39,998.74,-5.2,86,2.44,0.0,1027.38,360.0
2019-04-11 08:30,50.6304333333333,-96.9807716666667,8.7,9.6,40,998.63,-5.5,87,2.44,0.0,1027.29,360.0
2019-04-11 08:40,50.63044,-96.9807783333333,8.0,9.4,34,998.61,-5.7,89,2.44,0.0,1027.30,360.0
2019-04-11 08:50,50.630445,-96.980775,7.4,8.7,33,998.64,-5.9,90,2.44,0.0,1027.35,360.0
2019-04-11 09:00,50.630445,-96.9807683333333,7.5,8.7,36,998.66,-5.8,89,2.44,0.0,1027.38,48.3
2019-04-11 09:10,50.6304433333333,-96.9807666666667,7.2,8.0,30,998.72,-6.0,90,2.44,0.0,1027.46,48.3
2019-04-11 09:20,50.63044,-96.9807683333333,6.9,7.7,23,998.79,-6.1,90,2.44,0.0,1027.53,48.3
2019-04-11 09:30,50.6304383333333,-96.9807783333333,6.3,7.2,14,999.02,-6.3,92,2.44,0.0,1027.78,48.3
2019-04-11 09:40,50.6304416666667,-96.9807766666667,6.6,7.8,17,999.18,-6.4,93,2.43,0.0,1027.96,48.3
2019-04-11 09:50,50.6304416666667,-96.98077,6.6,7.4,17,999.21,-6.5,93,2.42,0.0,1028.01,48.3
2019-04-11 10:00,50.63044,-96.9807666666667,7.0,8.0,17,999.19,-6.6,93,2.42,0.0,1028.00,14.5
2019-04-11 10:10,50.63044,-96.980765,7.0,7.9,21,999.24,-6.7,93,2.42,0.0,1028.06,14.5
2019-04-11 10:20,50.6304366666667,-96.98075,6.7,8.0,17,999.30,-6.7,92,2.42,0.0,1028.13,14.5
2019-04-11 10:30,50.6304433333333,-96.9807583333333,6.6,7.7,17,999.35,-6.9,93,2.42,0.0,1028.21,14.5
2019-04-11 10:40,50.6304433333333,-96.98076,7.4,9.4,21,999.36,-7.0,94,2.41,0.0,1028.24,14.5
2019-04-11 10:50,50.630445,-96.98076,8.2,10.0,17,999.41,-7.1,94,2.41,0.0,1028.29,14.5
2019-04-11 11:00,50.630445,-96.98076,7.8,9.0,18,999.44,-7.1,94,2.41,0.0,1028.33,32.5
2019-04-11 11:10,50.6304466666667,-96.98076,7.9,8.8,27,999.48,-7.2,93,2.40,0.0,1028.38,32.5
2019-04-11 11:20,50.6304466666667,-96.98076,7.5,8.8,34,999.51,-7.3,93,2.40,0.0,1028.43,32.5
2019-04-11 11:30,50.63045,-96.98077,8.5,10.0,39,999.63,-7.1,91,2.40,0.0,1028.55,32.5
2019-04-11 11:40,50.6304483333333,-96.98077,9.7,11.2,35,999.56,-7.1,90,2.39,0.0,1028.48,32.5
2019-04-11 11:50,50.6304466666667,-96.9807683333333,10.1,11.4,41,999.66,-7.0,89,2.39,0.0,1028.58,32.5
2019-04-11 12:00,50.6304466666667,-96.980765,10.2,11.6,35,999.51,-6.9,89,2.39,0.0,1028.43,360.0
2019-04-11 12:10,50.6304466666667,-96.9807666666667,9.7,11.1,32,999.48,-7.0,89,2.38,0.0,1028.41,360.0
2019-04-11 12:20,50.6304466666667,-96.980765,10.2,12.1,27,999.30,-7.0,89,2.38,0.0,1028.24,360.0
2019-04-11 12:30,50.6304466666667,-96.9807633333333,10.8,12.3,31,999.28,-6.9,88,2.37,0.0,1028.21,360.0
2019-04-11 12:40,50.6304466666667,-96.9807633333333,11.4,13.1,32,999.20,-6.8,88,2.37,0.0,1028.12,360.0
2019-04-11 12:50,50.630445,-96.9807633333333,11.4,13.7,34,999.27,-6.6,87,2.37,0.0,1028.19,360.0
2019-04-11 13:00,50.630445,-96.9807633333333,11.9,13.9,37,999.39,-6.4,86,2.37,0.0,1028.31,90.0
2019-04-11 13:10,50.6304433333333,-96.9807633333333,11.9,14.0,40,999.45,-6.3,85,2.37,0.0,1028.37,90.0
2019-04-11 13:20,50.6304416666667,-96.980765,11.5,13.7,45,999.49,-6.2,85,2.37,0.0,1028.39,90.0
2019-04-11 13:30,50.6304416666667,-96.980765,11.9,14.2,46,999.40,-6.1,86,2.36,0.0,1028.30,90.0
2019-04-11 13:40,50.6304416666667,-96.9807666666667,12.1,14.0,43,999.36,-6.0,87,2.37,0.0,1028.24,90.0
2019-04-11 13:50,50.6304366666667,-96.9807833333333,12.0,14.1,40,999.31,-5.9,88,2.37,0.0,1028.18,90.0
2019-04-11 14:00,50.63044,-96.9807766666667,12.0,13.6,40,999.35,-5.8,87,2.37,0.0,1028.22,270.0
2019-04-11 14:10,50.6304433333333,-96.9807783333333,11.6,13.8,39,999.37,-5.5,86,2.36,0.0,1028.23,270.0
2019-04-11 14:20,50.6304433333333,-96.980775,11.2,12.9,37,999.34,-5.2,86,2.36,0.0,1028.18,270.0
2019-04-11 14:30,50.6304433333333,-96.9807733333333,11.1,12.7,34,999.18,-5.0,86,2.36,0.0,1027.99,270.0
2019-04-11 14:40,50.6304416666667,-96.9807716666667,10.3,11.9,27,999.04,-4.8,86,2.36,0.0,1027.83,270.0
2019-04-11 14:50,50.63044,-96.9807716666667,10.8,12.9,22,998.85,-4.6,89,2.36,0.0,1027.61,270.0
2019-04-11 15:00,50.63044,-96.9807733333333,11.6,12.7,25,998.77,-4.3,85,2.36,0.0,1027.50,228.3
2019-04-11 15:10,50.63044,-96.9807716666667,10.8,12.5,25,998.60,-3.9,83,2.36,0.0,1027.30,228.3
2019-04-11 15:20,50.6304483333333,-96.9807916666667,10.5,12.3,26,998.37,-3.5,82,2.37,0.0,1027.04,228.3
2019-04-11 15:30,50.63044,-96.9807783333333,10.7,13.2,20,998.26,-3.1,82,2.37,0.0,1026.90,228.3
2019-04-11 15:40,50.6304383333333,-96.9807716666667,11.4,13.1,17,998.08,-2.9,83,2.37,0.0,1026.70,228.3
2019-04-11 15:50,50.6304383333333,-96.9807716666667,11.8,13.4,16,997.89,-2.8,82,2.37,0.0,1026.49,228.3
2019-04-11 16:00,50.6304366666667,-96.9807716666667,11.6,14.0,13,997.65,-2.5,83,2.37,0.0,1026.21,228.3
2019-04-11 16:10,50.630425,-96.980805,11.8,13.9,13,997.45,-2.2,82,2.37,0.0,1025.97,228.3
2019-04-11 16:20,50.6304266666667,-96.980775,11.8,14.1,11,997.38,-1.8,82,2.37,0.0,1025.87,228.3
2019-04-11 16:30,50.6304366666667,-96.9807566666667,12.9,15.2,14,997.17,-1.5,79,2.37,0.0,1025.62,228.3
2019-04-11 16:40,50.6304366666667,-96.980765,13.1,15.2,13,997.04,-1.1,79,2.37,0.0,1025.47,228.3
2019-04-11 16:50,50.6304383333333,-96.9807666666667,13.8,16.5,11,997.01,-0.9,79,2.38,0.0,1025.40,228.3
2019-04-11 17:00,50.6304366666667,-96.9807683333333,14.6,17.2,11,996.92,-0.7,80,2.38,0.0,1025.28,167.4
2019-04-11 17:10,50.630435,-96.9807683333333,15.1,17.3,8,996.89,-0.6,80,2.38,0.0,1025.22,167.4
2019-04-11 17:20,50.6304366666667,-96.9807666666667,14.6,17.1,6,996.82,-0.4,79,2.39,0.0,1025.12,167.4
2019-04-11 17:30,50.6304383333333,-96.9807683333333,14.1,16.7,6,996.70,-0.2,77,2.39,0.0,1024.98,167.4
2019-04-11 17:40,50.6304383333333,-96.98077,14.2,17.1,4,996.57,0.0,76,2.40,0.0,1024.82,167.4
2019-04-11 17:50,50.6304383333333,-96.9807716666667,15.1,18.1,5,996.44,0.3,76,2.40,0.0,1024.66,167.4
2019-04-11 18:00,50.6304383333333,-96.9807733333333,14.6,18.0,5,996.28,0.5,74,2.40,0.0,1024.47,0.0
2019-04-11 18:10,50.6304383333333,-96.9807733333333,14.9,18.3,6,996.13,0.8,72,2.40,0.0,1024.28,0.0
2019-04-11 18:20,50.6304333333333,-96.980785,15.3,18.0,5,995.92,0.9,71,2.41,0.0,1024.04,0.0
2019-04-11 18:30,50.6304433333333,-96.98078,15.6,19.0,5,995.73,1.0,69,2.41,0.0,1023.82,0.0
2019-04-11 18:40,50.6304383333333,-96.9807733333333,13.9,17.0,6,995.66,0.9,72,2.41,0.0,1023.74,0.0
2019-04-11 18:50,50.6304366666667,-96.98077,13.5,16.2,6,995.60,1.3,74,2.42,0.0,1023.65,0.0
2019-04-11 19:00,50.6304366666667,-96.98077,13.8,16.4,6,995.38,1.4,76,2.42,0.0,1023.41,90.0
2019-04-11 19:10,50.6304366666667,-96.98077,13.8,16.6,7,995.22,1.4,78,2.43,0.0,1023.24,90.0
2019-04-11 19:20,50.6304366666667,-96.98077,14.7,17.3,7,995.07,1.4,78,2.43,0.0,1023.07,90.0
2019-04-11 19:30,50.6304366666667,-96.98077,14.4,17.7,6,994.90,1.6,75,2.43,0.0,1022.88,90.0
2019-04-11 19:40,50.6304366666667,-96.98077,14.8,18.9,5,994.72,1.6,74,2.43,0.0,1022.68,90.0
2019-04-11 19:50,50.6304383333333,-96.98077,15.5,19.2,5,994.45,1.9,72,2.43,0.0,1022.37,90.0
2019-04-11 20:00,50.6304383333333,-96.9807716666667,16.0,19.5,3,994.18,2.0,71,2.43,0.0,1022.08,347.4
2019-04-11 20:10,50.6304383333333,-96.9807716666667,15.8,19.0,5,993.93,2.0,72,2.44,0.0,1021.81,347.4
2019-04-11 20:20,50.63044,-96.98077,16.1,18.4,5,993.72,2.0,72,2.44,0.0,1021.59,347.4
2019-04-11 20:30,50.63044,-96.98077,15.9,18.4,7,993.49,2.1,73,2.44,0.0,1021.36,347.4
2019-04-11 20:40,50.63044,-96.98077,15.7,18.7,7,993.27,2.1,75,2.44,0.0,1021.11,347.4
2019-04-11 20:50,50.63044,-96.9807683333333,16.3,19.5,4,992.98,2.4,72,2.45,0.0,1020.79,347.4
2019-04-11 21:00,50.6304416666667,-96.9807683333333,17.8,20.3,5,992.72,2.4,72,2.45,0.0,1020.52,90.0
2019-04-11 21:10,50.6304416666667,-96.9807683333333,17.0,20.9,8,992.46,2.2,75,2.46,0.0,1020.27,90.0
2019-04-11 21:20,50.63044,-96.9807683333333,15.2,18.3,10,992.47,1.9,82,2.46,0.0,1020.28,90.0
2019-04-11 21:30,50.63044,-96.9807666666667,15.4,18.7,13,992.45,1.8,84,2.47,0.0,1020.27,90.0
2019-04-11 21:40,50.6304416666667,-96.9807666666667,17.6,20.7,19,992.11,1.9,80,2.47,0.0,1019.90,90.0
2019-04-11 21:50,50.6304416666667,-96.9807666666667,18.3,21.2,20,991.85,2.0,79,2.47,0.0,1019.62,90.0
2019-04-11 22:00,50.6304416666667,-96.9807666666667,16.9,19.8,23,991.76,2.2,77,2.47,0.0,1019.52,38.0
2019-04-11 22:10,50.6304416666667,-96.980765,15.7,17.7,22,991.73,2.0,79,2.47,0.0,1019.49,38.0
2019-04-11 22:20,50.6304416666667,-96.980765,15.7,18.3,25,991.69,2.2,75,2.47,0.0,1019.44,38.0
2019-04-11 22:30,50.6304416666667,-96.980765,14.8,17.1,20,991.57,2.0,78,2.48,0.0,1019.33,38.0
2019-04-11 22:40,50.6304416666667,-96.980765,14.3,16.3,17,991.49,1.9,80,2.48,0.0,1019.24,38.0
2019-04-11 22:50,50.6304416666667,-96.980765,13.2,15.8,12,991.51,1.6,84,2.49,0.0,1019.27,38.0
2019-04-11 23:00,50.6304416666667,-96.980765,12.1,14.1,12,991.50,1.5,85,2.48,0.0,1019.27,90.0
2019-04-11 23:10,50.6304283333333,-96.9807816666667,11.7,13.6,11,991.38,1.2,88,2.49,0.0,1019.19,90.0
2019-04-11 23:20,50.6304433333333,-96.9807766666667,11.8,13.9,18,991.25,1.2,86,2.50,0.0,1019.06,90.0
2019-04-11 23:30,50.6304433333333,-96.9807716666667,12.0,14.1,28,991.15,1.4,84,2.51,0.0,1018.94,90.0
2019-04-11 23:40,50.6304283333333,-96.9807566666667,10.8,12.6,30,991.15,1.2,86,2.51,0.0,1018.94,90.0
2019-04-11 23:50,50.630435,-96.9807683333333,10.2,11.5,20,991.13,1.0,89,2.52,0.0,1018.92,90.0
